This is the latest recevied weather packets stored in our database for station/object OK1FET-4. If no packets are shown the sender has not sent any weather packets the latest 10 day(s).
| Time | Temp. | Humidity | Pressure | Rain* | Wind** | Luminosity | Snow |
|---|---|---|---|---|---|---|---|
| 1777619840 | 12.78° C | 49% | 1030.2 hPa | - | - | - | - |
| 1777619539 | 12.78° C | 46% | 1030.2 hPa | - | - | - | - |
| 1777619539 | 12.78° C | 46% | 1030.2 hPa | - | - | - | - |
| 1777619239 | 12.22° C | 47% | 1030.1 hPa | - | - | - | - |
| 1777619239 | 12.22° C | 47% | 1030.1 hPa | - | - | - | - |
| 1777618938 | 11.67° C | 48% | 1030.1 hPa | - | - | - | - |
| 1777618938 | 11.67° C | 48% | 1030.1 hPa | - | - | - | - |
| 1777618638 | 11.11° C | 48% | 1030.1 hPa | - | - | - | - |
| 1777618638 | 11.11° C | 48% | 1030.1 hPa | - | - | - | - |
| 1777618338 | 10.56° C | 50% | 1030.1 hPa | - | - | - | - |
| 1777618337 | 10.56° C | 50% | 1030.1 hPa | - | - | - | - |
| 1777618037 | 10° C | 51% | 1030.1 hPa | - | - | - | - |
| 1777617737 | 9.44° C | 52% | 1030.1 hPa | - | - | - | - |
| 1777617737 | 9.44° C | 52% | 1030.1 hPa | - | - | - | - |
| 1777617437 | 8.89° C | 52% | 1030.2 hPa | - | - | - | - |
| 1777617137 | 8.89° C | 53% | 1030.2 hPa | - | - | - | - |
| 1777617137 | 8.89° C | 53% | 1030.2 hPa | - | - | - | - |
| 1777616836 | 9.44° C | 55% | 1030.1 hPa | - | - | - | - |
| 1777616836 | 9.44° C | 55% | 1030.1 hPa | - | - | - | - |
| 1777616536 | 10° C | 55% | 1030.1 hPa | - | - | - | - |
| 1777616536 | 10° C | 55% | 1030.1 hPa | - | - | - | - |
| 1777616236 | 9.44° C | 59% | 1030.1 hPa | - | - | - | - |
| 1777615936 | 9.44° C | 58% | 1030.1 hPa | - | - | - | - |
| 1777615935 | 9.44° C | 58% | 1030.1 hPa | - | - | - | - |
| 1777615635 | 8.89° C | 58% | 1030.1 hPa | - | - | - | - |
* Rain since midnight (hover to see other rain measurements)
** Current wind speed in m/s (hover to see current wind gust speed)